Regional Weather Roundup
Issued by NWS

Home | Current Version | Previous Version | Graphics & Text | Print | Product List | Glossary On
Versions: 1 2 3 4 5 6 7 8 9 10 11 12 13 14 15 16 17 18 19 20 21 22 23 24 25 26 27 28 29 30 31 32 33 34 35 36 37 38 39 40 41 42 43 44 45 46 47 48 49 50
000
ASUS43 KMPX 061310
RWRMN
WEATHER ROUNDUP FOR MINNESOTA
NATIONAL WEATHER SERVICE TWIN CITIES/CHANHASSEN MN
800 AM CDT WED MAY 06 2015


NOTE: "FAIR" INDICATES FEW OR NO CLOUDS BELOW 12,000 FEET WITH NO
SIGNIFICANT WEATHER AND/OR OBSTRUCTIONS TO VISIBILITY. N/A MEANS
CURRENT SKY AND/OR WEATHER CONDITIONS ARE NOT AVAILABLE.

MNZ060>063-068>070-061400-
   Twin Cities Metro

CITY           SKY/WX    TMP DP  RH WIND       PRES   REMARKS
TWIN CITIES    CLOUDY    56  55  97 SE13      30.08S FOG
ST PAUL        CLOUDY    56  55  97 SE12      30.09R FOG
CRYSTAL        CLOUDY    57  55  93 SE9       30.06S FOG
BLAINE         CLOUDY    57  55  94 SE10      30.08R
LAKEVILLE      FOG       55  54  94 E8        30.07F VSB 1
EDEN PRAIRIE   CLOUDY    56  55  97 SE10      30.06S FOG
SOUTH ST PAUL  CLOUDY    56  55  94 SE6       30.09R FOG
LAKE ELMO      CLOUDY    54  54 100 SE8       30.11R FOG
$$
MNZ001>005-007-008-013>017-022>024-027-028-061400-
   Northwest Minnesota

CITY           SKY/WX    TMP DP  RH WIND       PRES   REMARKS
BEMIDJI        CLOUDY    58  50  77 SE12      30.00S
HALLOCK        PTSUNNY   61  46  59 SE13      29.92S
ROSEAU         CLOUDY    61  45  55 S12       29.97R
WARROAD        CLOUDY    57  45  62 SE10      29.99S
THIEF RVR FALL CLOUDY    59  46  63 SE10      29.95S
CROOKSTON      CLOUDY    63  55  77 S17       29.94S
FOSSTON        PTSUNNY   61  52  72 SE8       29.97S
DETROIT LAKES  CLOUDY    55  54  94 SE16      29.98S FOG
MOORHEAD       CLOUDY    57  55  94 S18G25    29.95R FOG
PARK RAPIDS    CLOUDY    58  53  84 SE14      30.01R
MAHNOMEN       FAIR      59  54  84 SE13G18   29.95F
$$
MNZ006-009>011-018-025>026-061400-
   North Central Minnesota

CITY           SKY/WX    TMP DP  RH WIND       PRES   REMARKS
BAUDETTE       CLOUDY    54  35  48 SE12      30.01F
FLAG ISLAND    SUNNY     54  39  58 SE9       30.00R
INTL FALLS     PTSUNNY   53  35  50 SE8       30.06F
WASKISH        CLOUDY    52  45  76 CALM      30.01F
BIG FORK       CLOUDY    52  45  76 SE5       30.06F
LONGVILLE      CLOUDY    57  52  82 SE10      30.04R
GRAND RAPIDS   CLOUDY    52  39  62 SE7       30.07S
CRANE LAKE     CLOUDY    54  36  50 CALM      30.11S
ORR            MOSUNNY   54  30  40 SE7       30.07S
COOK           PTSUNNY   55  36  47 SE8       30.09S
WALKER         CLOUDY    56  51  83 SE6       30.02R
$$
MNZ012-019>021-037-061400-
   Northeast Minnesota

CITY           SKY/WX    TMP DP  RH WIND       PRES   REMARKS
DULUTH         CLOUDY    48  41  76 E9        30.11S
ELY            MOSUNNY   55  32  41 SE7       30.11F
HIBBING        CLOUDY    50  40  68 SE10      30.09F
EVELETH        CLOUDY    52  36  54 SE7       30.12S
DULUTH HARBOR    N/A     43  37  81 E8        30.14S
TWO HARBORS    CLOUDY    55  36  47 E6        30.12S
SILVER BAY     CLOUDY    55  30  38 NE8       30.13S
GRAND MARAIS     N/A     45  33  63 NE10      30.18S
G MARAIS ARPRT CLOUDY    54  23  30 SE5       30.18R
$$
MNZ029>031-032-039>041-046>048-054>057-064-061400-
   West Central Minnesota

CITY           SKY/WX    TMP DP  RH WIND       PRES   REMARKS
FERGUS FALLS   LGT RAIN  57  55  94 SE18      29.98S
WHEATON        CLOUDY    54  52  94 SE17      29.96F FOG
MORRIS         CLOUDY    55  55 100 SE18      29.96F FOG
ALEXANDRIA     FOG       54  54 100 SE14G21   30.02R VSB 3/4
ELBOW LAKE     CLOUDY    55  54  95 SE17      29.97S FOG
WADENA         CLOUDY    55  54  94 SE10      30.00S FOG
GLENWOOD       CLOUDY    55  54  94 SE16      30.02R VSB 3/4
APPLETON       FOG       57  55  94 SE12G17   29.96S VSB 3/4
BENSON         CLOUDY    55  54  94 SE13G18   29.98F FOG
ORTONVILLE     FOG       55  54  94 SE14G21   29.94F VSB 1
MADISON        LGT RAIN  57  55  94 SE14      29.94F
WILLMAR        FOG       57  57 100 SE15      30.01F VSB 1/2
$$
MNZ033>034-036-042>043-049>051-058-059-061400-
   Central Minnesota

CITY           SKY/WX    TMP DP  RH WIND       PRES   REMARKS
ST CLOUD       FOG       55  54  96 SE10      30.06R VSB 3/4
SAUK CENTRE    CLOUDY    55  54  98 SE12      30.04R FOG
PAYNESVILLE    FOG       53  53 100 E10G18    30.04S VSB 1
AITKIN         CLOUDY    57  50  77 SE5       30.05R
PINE RIVER     CLOUDY    55  52  88 SE8       30.07R
BRAINERD       CLOUDY    56  52  86 SE12      30.05S
STAPLES        CLOUDY    55  54  94 SE9       30.02S FOG
LONG PRAIRIE   FOG       54  54 100 SE10      30.04R VSB 3/4
LITTLE FALLS   FOG       54  52  94 SE9       30.06R VSB 1/2
LITCHFIELD     FOG       57  57 100 SE12      30.04S VSB 3/4
BUFFALO        CLOUDY    55  54  94 SE9       30.07R FOG
MAPLE LAKE     FOG       56  56  98 SE7       30.07R VSB 1
$$
MNZ037-044-045-052-053-061400-
   East Central Minnesota

CITY           SKY/WX    TMP DP  RH WIND       PRES   REMARKS
PRINCETON      CLOUDY    55  54  94 SE10      30.08R FOG
MORA           CLOUDY    54  48  82 SE7       30.10S
CAMBRIDGE      CLOUDY    57  48  72 SE9       30.07R HAZE
RUSH CITY      CLOUDY    55  50  86 E5        30.09S
MOOSE LAKE     CLOUDY    46  43  87 N3        30.08R
HINCKLEY       CLOUDY    54  52  94 E7        30.09S
CLOQUET        CLOUDY    46  43  87 E5        30.11R
MCGREGOR       CLOUDY    54  48  82 E7        30.08R
$$
MNZ071>073-080-081-089-090-097-098-061400-
   Southwest Minnesota

CITY           SKY/WX    TMP DP  RH WIND       PRES   REMARKS
MONTEVIDEO     CLOUDY    57  57 100 S14       29.97F FOG
GRANITE FALLS  FOG       57  56  99 E9G22     29.98F VSB 3/4
CANBY          RAIN      58  57  96 SE13      29.94F VSB 1
MARSHALL       CLOUDY    59  54  82 SE13      29.95F
REDWOOD FALLS  LGT RAIN  59  58  96 SE14      29.98F FOG
OLIVIA         FOG       54  54 100 SE13      29.99F VSB 1/2
PIPESTONE      CLOUDY    61  59  94 SE12G17   29.93F
WINDOM         CLOUDY    61  59  94 E9        29.98S VSB 1
WORTHINGTON    CLOUDY    61  57  88 SE17      29.96S
JACKSON        CLOUDY    61  59  94 SE12      29.99S FOG
TRACY          LGT RAIN  60  60  97 SE12      29.96F
SLAYTON        CLOUDY    60  60 100 SE15      29.96F FOG
$$
MNZ065>067-074>077-082>085-091>093-061400-
   South Central Minnesota

CITY           SKY/WX    TMP DP  RH WIND       PRES   REMARKS
MANKATO        CLOUDY    57  55  94 SE13      30.04S
NEW ULM        CLOUDY    57  57 100 SE10      30.01F FOG
ST JAMES       LGT RAIN  61  57  88 E10       30.01F
FAIRMONT       CLOUDY    59  54  82 SE13      30.00S
GLENCOE        CLOUDY    57  57 100 E10       30.04S FOG
FARIBAULT      CLOUDY    57  55  94 SE12      30.06F FOG
OWATONNA       CLOUDY    55  54  94 SE12      30.06S FOG
WASECA         CLOUDY    55  54  94 SE13      30.06S FOG
ALBERT LEA     FOG       55  55 100 SE13      30.06S VSB 3/4
$$
MNZ078>079-086>088-094>096-061400-
   Southeast Minnesota

CITY           SKY/WX    TMP DP  RH WIND       PRES   REMARKS
ROCHESTER      FOG       55  54  96 SE15      30.11R VSB 1/4
RED WING       CLOUDY    55  54  94 SE9       30.10R FOG
STANTON        CLOUDY    57  55  92 SE8       30.07S FOG
DODGE CENTER   CLOUDY    55  55 100 SE14      30.09S FOG
WINONA         CLOUDY    55  54  94 SE6       30.12S FOG
AUSTIN         FOG       55  54  94 SE12      30.07F VSB 3/4
PRESTON        FOG       53  53  99 SE7       30.12R VSB 1/2
$$
ABBREVIATIONS USED IN REMARKS
   TC - TEMPERATURES IN CELSIUS
  WCI - WIND CHILL INDEX
   HX - HEAT INDEX
  VSB - VISIBILITY
$$



USA.gov is the U.S. government's official web portal to all federal, state and local government web resources and services.